Regional Weather Roundup
Issued by NWS Portland, ME

Home | Current Version | Previous Version | Text Only | Print | Product List | Glossary On
Versions: 1 2 3 4 5 6 7 8 9 10 11 12 13 14 15 16 17 18 19 20 21 22 23 24 25 26 27 28 29 30 31 32 33 34 35 36 37 38 39 40 41 42 43 44 45 46 47 48 49 50
000
ASUS41 KGYX 232110
RWRGYX
WEATHER ROUNDUP FOR MAINE AND NEW HAMPSHIRE
NATIONAL WEATHER SERVICE GRAY ME
500 PM EDT MON MAY 23 2022

MEZ002-005-006-010-012-015-018-020-021-024-026-027-029-232200-
MAINE

CITY           SKY/WX    TMP DP  RH WIND       PRES   REMARKS
PORTLAND       MOSUNNY   68  36  30 N13G23    30.15S
SANFORD        MOSUNNY   71  37  28 N9        30.15S
BAR HARBOR     SUNNY     65  37  35 N12G18    30.15S
WISCASSET      MOSUNNY   69  37  30 VRB5      30.16R
ROCKLAND       MOSUNNY   67  41  38 NW9       30.15R
FRYEBURG       MOSUNNY   66  33  29 NE8G18    30.18S
LEWISTONAUBURN MOSUNNY   67  35  30 N12       30.16S
AUGUSTA        MOSUNNY   66  37  34 NE12      30.17R
WATERVILLE     SUNNY     63  39  41 NE18      30.15S
BANGOR         MOSUNNY   66  37  34 N16       30.16R
GREENVILLE       N/A     58  34  40 N12G21    30.17S
MILLINOCKET    SUNNY     63  35  35 NW12G20   30.19R
HOULTON        SUNNY     60  35  39 N15G21    30.17R
PRESQUE ISLE   SUNNY     56  34  43 N18       30.22R
FRENCHVILLE    SUNNY     54  29  38 NW13G22   30.22S
CARIBOU        SUNNY     55  34  45 NW14G24   30.21R
$$

NHZ002-005-008-009-011-012-014-232200-
NEW HAMPSHIRE

CITY           SKY/WX    TMP DP  RH WIND       PRES   REMARKS
PORTSMOUTH     PTSUNNY   67  39  35 SE10      30.16R
ROCHESTER      MOSUNNY   72  37  28 NW8       30.15S
NASHUA         MOSUNNY   71  35  26 N10G18    30.17S
MANCHESTER     PTSUNNY   72  32  23 NW12G18   30.16R
CONCORD        MOSUNNY   68  32  26 NW16      30.17S
LACONIA        MOSUNNY   66  35  31 W10       30.18S
BERLIN         MOSUNNY   60  32  34 NW14G22   30.23R
WHITEFIELD     MOSUNNY   60  34  37 N8        30.23S
JAFFREY        PTSUNNY   68  36  30 MISG      30.19R
KEENE          PTSUNNY   67  36  31 N9        30.19S
LEBANON        PTSUNNY   69  34  27 N9        30.21S
MT WASHINGTON  MOSUNNY   32  27  80 N20G31      N/A
$$

VTZ005-007-008-232200-
VERMONT

CITY           SKY/WX    TMP DP  RH WIND       PRES   REMARKS
ST JOHNSBURY     N/A     61  34  36 MISG      30.23S
MONTPELIER     MOSUNNY   62  34  35 N12       30.29R
BURLINGTON     PTSUNNY   63  36  36 N8        30.28S
$$

MAZ007-012-024-CTZ003-RIZ002-NYZ038-NYZ072-232200-
SOUTHERN NEW ENGLAND AND NY

CITY           SKY/WX    TMP DP  RH WIND       PRES   REMARKS
BOSTON         PTSUNNY   62  45  53 E10       30.17S
WORCESTER      MOSUNNY   69  38  32 NE6       30.16S
NANTUCKET      PTSUNNY   65  46  50 NE20      30.15S
PROVIDENCE     MOSUNNY   73  52  47 VRB3      30.13S
HARTFORD       PTSUNNY   74  39  28 NE12      30.15F
ALBANY         PTSUNNY   66  39  37 N9        30.23R
NEW YORK CITY  PTSUNNY   72  41  32 N8        30.16R
$$

ANZ081-ANZ082-ANZ150-NHZ014-MEZ023>029-232200-
COASTAL MARINE OBSERVATIONS

STATION/POSITION TIME  TEMP    WIND        PRES    WAVE
                       AIR SEA DIR/SP/G            HT/PER
                 (UTC) (F)     (DEG/KT/KT) (MB)    (FT/S)
MOUNT DESERT ROC 2100   58     300/  9/  9 1020.3R
MATINICUS ROCK   2100   57     360/  8/  8 1021.2R
ISLE OF SHOALS   2100   59     130/ 10/ 10 1020.5R
JEFFREYS LEDGE   2026      54                N/A     2/10
CASHES LEDGE BUO 2050   55 53  310/  2/  4 1020.8R   2/ 4
GEORGES BANK BUO 2050      51              1019.2R   4/ 4
$$

.............KEY..............
   WCI - WIND CHILL
   TC  - TEMPERATURE IN CELSIUS
   VSB - VISIBILITY IN MILES
   HX  - HEAT INDEX
   FAIR- INDICATES FEW OR NO CLOUDS BELOW 12,000 FT, WITH NO
         SIGNIFICANT WEATHER AND/OR OBSTRUCTIONS TO VISIBILITY.





USA.gov is the U.S. government's official web portal to all federal, state and local government web resources and services.